Time,TemperatureF,DewpointF,PressureIn,WindDirection,WindDirectionDegrees,WindSpeedMPH,WindSpeedGustMPH,Humidity,HourlyPrecipIn,Conditions,Clouds,dailyrainin,SoftwareType,DateUTC
2013-08-21 00:01:00,64.2,58.9,30.04,WNW,292,0.0,0.0,83,0.00,RA,,0.00,WeatherDisplay:10.37,2013-08-21 04:01:00,
2013-08-21 00:06:00,64.0,58.8,30.04,WNW,292,0.0,0.0,83,0.00,RA,,0.00,WeatherDisplay:10.37,2013-08-21 04:06:00,
2013-08-21 00:11:00,63.9,58.9,30.04,WNW,292,0.0,0.0,84,0.00,CLR,,0.00,WeatherDisplay:10.37,2013-08-21 04:11:00,
2013-08-21 00:16:00,63.7,58.8,30.04,WNW,292,0.0,0.0,84,0.00,CLR,,0.00,WeatherDisplay:10.37,2013-08-21 04:16:00,
2013-08-21 00:21:00,63.7,58.8,30.04,WNW,292,0.0,0.0,84,0.00,CLR,,0.00,WeatherDisplay:10.37,2013-08-21 04:21:00,
2013-08-21 00:26:00,63.7,58.8,30.05,WNW,292,0.0,0.0,84,0.00,CLR,,0.00,WeatherDisplay:10.37,2013-08-21 04:26:00,
2013-08-21 00:31:00,63.5,58.6,30.05,WNW,292,0.0,0.0,84,0.00,CLR,,0.00,WeatherDisplay:10.37,2013-08-21 04:31:00,
2013-08-21 00:36:00,63.5,58.9,30.05,WNW,292,0.0,0.0,85,0.00,CLR,,0.00,WeatherDisplay:10.37,2013-08-21 04:36:00,
2013-08-21 00:41:00,63.3,58.7,30.05,WNW,292,0.0,0.0,85,0.00,CLR,,0.00,WeatherDisplay:10.37,2013-08-21 04:41:00,
2013-08-21 00:46:00,63.3,58.7,30.05,WNW,292,0.0,0.0,85,0.00,CLR,,0.00,WeatherDisplay:10.37,2013-08-21 04:46:00,
2013-08-21 00:51:00,63.3,58.7,30.04,WNW,292,0.0,0.0,85,0.00,CLR,,0.00,WeatherDisplay:10.37,2013-08-21 04:51:00,
2013-08-21 00:56:00,63.3,58.7,30.04,WNW,292,0.0,0.0,85,0.00,CLR,,0.00,WeatherDisplay:10.37,2013-08-21 04:56:00,
2013-08-21 01:01:00,63.3,58.7,30.04,WNW,292,0.0,0.0,85,0.00,CLR,,0.00,WeatherDisplay:10.37,2013-08-21 05:01:00,
2013-08-21 01:06:00,63.3,58.7,30.05,WNW,292,0.0,0.0,85,0.00,CLR,,0.00,WeatherDisplay:10.37,2013-08-21 05:06:00,
2013-08-21 01:11:00,63.3,59.1,30.05,WNW,292,0.0,0.0,86,0.00,CLR,,0.00,WeatherDisplay:10.37,2013-08-21 05:11:00,
2013-08-21 01:16:00,63.3,58.7,30.05,WNW,292,0.0,0.0,85,0.00,CLR,,0.00,WeatherDisplay:10.37,2013-08-21 05:16:00,
2013-08-21 01:21:00,63.0,58.4,30.05,WNW,292,0.0,0.0,85,0.00,CLR,,0.00,WeatherDisplay:10.37,2013-08-21 05:21:00,
2013-08-21 01:26:00,63.0,58.4,30.04,WNW,292,0.0,0.0,85,0.00,CLR,,0.00,WeatherDisplay:10.37,2013-08-21 05:26:00,
2013-08-21 01:31:00,62.8,58.2,30.05,WNW,292,0.0,0.0,85,0.00,CLR,,0.00,WeatherDisplay:10.37,2013-08-21 05:31:00,
2013-08-21 01:36:00,62.8,58.5,30.05,WNW,292,0.0,0.0,86,0.00,CLR,,0.00,WeatherDisplay:10.37,2013-08-21 05:36:00,
2013-08-21 01:41:00,62.6,58.4,30.05,WNW,292,0.0,0.0,86,0.00,CLR,,0.00,WeatherDisplay:10.37,2013-08-21 05:41:00,
2013-08-21 01:46:00,62.6,58.4,30.05,WNW,292,0.0,0.0,86,0.00,CLR,,0.00,WeatherDisplay:10.37,2013-08-21 05:46:00,
2013-08-21 01:51:00,62.4,58.2,30.05,WNW,292,0.0,0.0,86,0.00,CLR,,0.00,WeatherDisplay:10.37,2013-08-21 05:51:00,
2013-08-21 01:56:00,62.4,58.2,30.05,WNW,292,0.0,0.0,86,0.00,CLR,,0.00,WeatherDisplay:10.37,2013-08-21 05:56:00,
2013-08-21 02:01:00,62.2,58.0,30.05,WNW,292,0.0,0.0,86,0.00,CLR,,0.00,WeatherDisplay:10.37,2013-08-21 06:01:00,
2013-08-21 02:06:00,62.2,58.0,30.04,WNW,292,0.0,0.0,86,0.00,CLR,,0.00,WeatherDisplay:10.37,2013-08-21 06:06:00,
2013-08-21 02:11:00,62.2,58.3,30.04,WNW,292,0.0,0.0,87,0.00,CLR,,0.00,WeatherDisplay:10.37,2013-08-21 06:11:00,
2013-08-21 02:16:00,62.2,58.3,30.05,WNW,292,0.0,0.0,87,0.00,CLR,,0.00,WeatherDisplay:10.37,2013-08-21 06:16:00,
2013-08-21 02:21:00,62.2,58.3,30.04,WNW,292,0.0,0.0,87,0.00,CLR,,0.00,WeatherDisplay:10.37,2013-08-21 06:21:00,
2013-08-21 02:26:00,62.1,58.1,30.04,WNW,292,0.0,0.0,87,0.00,CLR,,0.00,WeatherDisplay:10.37,2013-08-21 06:26:00,
2013-08-21 02:31:00,61.9,58.0,30.04,WNW,292,0.0,0.0,87,0.00,CLR,,0.00,WeatherDisplay:10.37,2013-08-21 06:31:00,
2013-08-21 02:36:00,61.9,57.6,30.04,WNW,292,0.0,0.0,86,0.00,CLR,,0.00,WeatherDisplay:10.37,2013-08-21 06:36:00,
2013-08-21 02:41:00,61.7,57.8,30.05,WNW,292,0.0,0.0,87,0.00,CLR,,0.00,WeatherDisplay:10.37,2013-08-21 06:41:00,
2013-08-21 02:46:00,61.7,57.8,30.05,WNW,292,0.0,0.0,87,0.00,CLR,,0.00,WeatherDisplay:10.37,2013-08-21 06:46:00,
2013-08-21 02:51:00,61.5,57.6,30.05,WNW,292,0.0,0.0,87,0.00,CLR,,0.00,WeatherDisplay:10.37,2013-08-21 06:51:00,
2013-08-21 02:56:00,61.5,57.6,30.05,WNW,292,0.0,0.0,87,0.00,CLR,,0.00,WeatherDisplay:10.37,2013-08-21 06:56:00,
2013-08-21 03:01:00,61.5,57.6,30.05,WNW,292,0.0,0.0,87,0.00,CLR,,0.00,WeatherDisplay:10.37,2013-08-21 07:01:00,
2013-08-21 03:06:00,61.5,57.6,30.05,WNW,292,0.0,0.0,87,0.00,CLR,,0.00,WeatherDisplay:10.37,2013-08-21 07:06:00,
2013-08-21 03:11:00,61.3,57.4,30.05,WNW,292,0.0,0.0,87,0.00,CLR,,0.00,WeatherDisplay:10.37,2013-08-21 07:11:00,
2013-08-21 03:16:00,61.3,57.4,30.05,WNW,292,0.0,0.0,87,0.00,CLR,,0.00,WeatherDisplay:10.37,2013-08-21 07:16:00,
2013-08-21 03:21:00,61.3,57.4,30.05,WNW,292,0.0,0.0,87,0.00,CLR,,0.00,WeatherDisplay:10.37,2013-08-21 07:21:00,
2013-08-21 03:26:00,61.3,57.4,30.05,WNW,292,0.0,0.0,87,0.00,CLR,,0.00,WeatherDisplay:10.37,2013-08-21 07:26:00,
2013-08-21 03:31:00,61.3,57.4,30.05,WNW,292,0.0,0.0,87,0.00,CLR,,0.00,WeatherDisplay:10.37,2013-08-21 07:31:00,
2013-08-21 03:36:00,61.3,57.4,30.05,WNW,292,0.0,0.0,87,0.00,CLR,,0.00,WeatherDisplay:10.37,2013-08-21 07:36:00,
2013-08-21 03:41:00,61.2,57.3,30.05,WNW,292,0.0,0.0,87,0.00,CLR,,0.00,WeatherDisplay:10.37,2013-08-21 07:41:00,
2013-08-21 03:46:00,61.2,57.3,30.05,WNW,292,0.0,0.0,87,0.00,CLR,,0.00,WeatherDisplay:10.37,2013-08-21 07:46:00,
2013-08-21 03:51:00,61.0,57.1,30.05,WNW,292,0.0,0.0,87,0.00,CLR,,0.00,WeatherDisplay:10.37,2013-08-21 07:51:00,
2013-08-21 03:56:00,60.8,56.9,30.05,WNW,292,0.0,0.0,87,0.00,CLR,,0.00,WeatherDisplay:10.37,2013-08-21 07:56:00,
2013-08-21 04:01:00,60.8,56.9,30.05,WNW,292,0.0,0.0,87,0.00,CLR,,0.00,WeatherDisplay:10.37,2013-08-21 08:01:00,
2013-08-21 04:06:00,60.8,56.9,30.05,WNW,292,0.0,0.0,87,0.00,CLR,,0.00,WeatherDisplay:10.37,2013-08-21 08:06:00,
2013-08-21 04:11:00,60.8,56.9,30.05,WNW,292,0.0,0.0,87,0.00,CLR,,0.00,WeatherDisplay:10.37,2013-08-21 08:11:00,
2013-08-21 04:16:00,60.8,56.9,30.05,WNW,292,0.0,0.0,87,0.00,CLR,,0.00,WeatherDisplay:10.37,2013-08-21 08:16:00,
2013-08-21 04:21:00,60.8,56.9,30.05,WNW,292,0.0,0.0,87,0.00,CLR,,0.00,WeatherDisplay:10.37,2013-08-21 08:21:00,
2013-08-21 04:26:00,60.8,57.2,30.05,WNW,292,0.0,0.0,88,0.00,CLR,,0.00,WeatherDisplay:10.37,2013-08-21 08:26:00,
2013-08-21 04:31:00,60.8,57.2,30.05,WNW,292,0.0,0.0,88,0.00,CLR,,0.00,WeatherDisplay:10.37,2013-08-21 08:31:00,
2013-08-21 04:36:00,60.8,57.2,30.05,WNW,292,0.0,0.0,88,0.00,CLR,,0.00,WeatherDisplay:10.37,2013-08-21 08:36:00,
2013-08-21 04:41:00,60.8,57.2,30.05,WNW,292,0.0,0.0,88,0.00,CLR,,0.00,WeatherDisplay:10.37,2013-08-21 08:41:00,
2013-08-21 04:46:00,60.8,57.2,30.05,WNW,292,0.0,0.0,88,0.00,CLR,,0.00,WeatherDisplay:10.37,2013-08-21 08:46:00,
2013-08-21 04:51:00,61.0,57.4,30.05,WNW,292,0.0,0.0,88,0.00,CLR,,0.00,WeatherDisplay:10.37,2013-08-21 08:51:00,
2013-08-21 04:56:00,61.0,57.4,30.06,WNW,292,0.0,0.0,88,0.00,CLR,,0.00,WeatherDisplay:10.37,2013-08-21 08:56:00,
2013-08-21 05:01:00,61.0,57.4,30.06,WNW,292,0.0,0.0,88,0.00,CLR,,0.00,WeatherDisplay:10.37,2013-08-21 09:01:00,
2013-08-21 05:06:00,60.8,57.2,30.06,WNW,292,0.0,0.0,88,0.00,CLR,,0.00,WeatherDisplay:10.37,2013-08-21 09:06:00,
2013-08-21 05:11:00,60.8,57.2,30.06,WNW,292,0.0,0.0,88,0.00,CLR,,0.00,WeatherDisplay:10.37,2013-08-21 09:11:00,
2013-08-21 05:16:00,60.8,57.2,30.06,WNW,292,0.0,0.0,88,0.00,CLR,,0.00,WeatherDisplay:10.37,2013-08-21 09:16:00,
2013-08-21 05:21:00,60.8,57.2,30.06,WNW,292,0.0,0.0,88,0.00,CLR,,0.00,WeatherDisplay:10.37,2013-08-21 09:21:00,
2013-08-21 05:26:00,60.8,57.2,30.06,WNW,292,0.0,0.0,88,0.00,CLR,,0.00,WeatherDisplay:10.37,2013-08-21 09:26:00,
2013-08-21 05:31:00,60.8,57.2,30.06,WNW,292,0.0,0.0,88,0.00,CLR,,0.00,WeatherDisplay:10.37,2013-08-21 09:31:00,
2013-08-21 05:36:00,60.8,57.2,30.06,WNW,292,0.0,0.0,88,0.00,CLR,,0.00,WeatherDisplay:10.37,2013-08-21 09:36:00,
2013-08-21 05:41:00,60.8,57.5,30.06,WNW,292,0.0,0.0,89,0.00,CLR,,0.00,WeatherDisplay:10.37,2013-08-21 09:41:00,
2013-08-21 05:46:00,60.8,57.5,30.07,WNW,292,0.0,0.0,89,0.00,CLR,,0.00,WeatherDisplay:10.37,2013-08-21 09:46:00,
2013-08-21 05:51:00,60.8,57.5,30.07,WNW,292,0.0,0.0,89,0.00,CLR,,0.00,WeatherDisplay:10.37,2013-08-21 09:51:00,
2013-08-21 05:56:00,60.8,57.5,30.07,WNW,292,0.0,0.0,89,0.00,CLR,,0.00,WeatherDisplay:10.37,2013-08-21 09:56:00,
2013-08-21 06:01:00,60.8,57.5,30.07,WNW,292,0.0,0.0,89,0.00,CLR,,0.00,WeatherDisplay:10.37,2013-08-21 10:01:00,
2013-08-21 06:06:00,61.0,57.7,30.07,WNW,292,0.0,0.0,89,0.00,CLR,,0.00,WeatherDisplay:10.37,2013-08-21 10:06:00,
2013-08-21 06:11:00,61.2,57.9,30.07,WNW,292,0.0,0.0,89,0.00,CLR,,0.00,WeatherDisplay:10.37,2013-08-21 10:11:00,
2013-08-21 06:16:00,61.3,58.1,30.07,WNW,292,0.0,0.0,89,0.00,CLR,,0.00,WeatherDisplay:10.37,2013-08-21 10:16:00,
2013-08-21 06:21:00,61.3,58.1,30.07,WNW,292,0.0,0.0,89,0.00,CLR,,0.00,WeatherDisplay:10.37,2013-08-21 10:21:00,
2013-08-21 06:26:00,61.3,58.1,30.07,WNW,292,0.0,0.0,89,0.00,CLR,,0.00,WeatherDisplay:10.37,2013-08-21 10:26:00,
2013-08-21 06:31:00,61.5,58.2,30.07,WNW,292,0.0,0.0,89,0.00,CLR,,0.00,WeatherDisplay:10.37,2013-08-21 10:31:00,
2013-08-21 06:36:00,61.5,58.2,30.08,WNW,292,0.0,0.0,89,0.00,CLR,,0.00,WeatherDisplay:10.37,2013-08-21 10:36:00,
2013-08-21 06:41:00,61.7,58.4,30.08,WNW,292,0.0,0.0,89,0.00,CLR,,0.00,WeatherDisplay:10.37,2013-08-21 10:41:00,
2013-08-21 06:46:00,61.9,58.6,30.08,WNW,292,0.0,0.0,89,0.00,CLR,,0.00,WeatherDisplay:10.37,2013-08-21 10:46:00,
2013-08-21 06:51:00,62.2,59.0,30.08,WNW,292,0.0,0.0,89,0.00,CLR,,0.00,WeatherDisplay:10.37,2013-08-21 10:51:00,
2013-08-21 06:56:00,62.4,59.1,30.08,WNW,292,0.0,0.0,89,0.00,CLR,,0.00,WeatherDisplay:10.37,2013-08-21 10:56:00,
2013-08-21 07:01:00,62.6,59.3,30.08,WNW,292,0.0,0.0,89,0.00,CLR,,0.00,WeatherDisplay:10.37,2013-08-21 11:01:00,
2013-08-21 07:06:00,63.0,60.0,30.08,WNW,292,0.0,0.0,90,0.00,CLR,,0.00,WeatherDisplay:10.37,2013-08-21 11:06:00,
2013-08-21 07:11:00,63.3,60.3,30.08,WNW,292,0.0,0.0,90,0.00,CLR,,0.00,WeatherDisplay:10.37,2013-08-21 11:11:00,
2013-08-21 07:16:00,63.7,60.7,30.08,WSW,248,0.0,0.0,90,0.00,CLR,,0.00,WeatherDisplay:10.37,2013-08-21 11:16:00,
2013-08-21 07:21:00,64.0,61.0,30.08,WSW,248,0.0,0.0,90,0.00,CLR,,0.00,WeatherDisplay:10.37,2013-08-21 11:21:00,
2013-08-21 07:26:00,64.6,61.6,30.08,WSW,248,0.0,0.0,90,0.00,CLR,,0.00,WeatherDisplay:10.37,2013-08-21 11:26:00,
2013-08-21 07:31:00,64.9,61.9,30.08,WSW,248,0.0,0.0,90,0.00,CLR,,0.00,WeatherDisplay:10.37,2013-08-21 11:31:00,
2013-08-21 07:36:00,65.5,62.5,30.08,West,270,0.0,0.0,90,0.00,CLR,,0.00,WeatherDisplay:10.37,2013-08-21 11:36:00,
2013-08-21 07:41:00,65.8,63.1,30.09,SSW,202,0.5,0.5,91,0.00,CLR,,0.00,WeatherDisplay:10.37,2013-08-21 11:41:00,
2013-08-21 07:46:00,66.4,63.7,30.09,WSW,248,0.2,0.2,91,0.00,CLR,,0.00,WeatherDisplay:10.37,2013-08-21 11:46:00,
2013-08-21 07:51:00,66.9,63.9,30.08,WSW,248,0.0,0.0,90,0.00,CLR,,0.00,WeatherDisplay:10.37,2013-08-21 11:51:00,
2013-08-21 07:56:00,67.3,64.2,30.09,WSW,248,0.0,0.0,90,0.00,CLR,,0.00,WeatherDisplay:10.37,2013-08-21 11:56:00,
2013-08-21 08:01:00,68.0,65.0,30.09,WSW,248,0.0,0.0,90,0.00,CLR,,0.00,WeatherDisplay:10.37,2013-08-21 12:01:00,
2013-08-21 08:06:00,68.7,65.7,30.09,WSW,248,0.0,0.0,90,0.00,CLR,,0.00,WeatherDisplay:10.37,2013-08-21 12:06:00,
2013-08-21 08:11:00,69.4,66.1,30.09,WSW,248,0.0,0.0,89,0.00,CLR,,0.00,WeatherDisplay:10.37,2013-08-21 12:11:00,
2013-08-21 08:16:00,70.2,66.4,30.09,WSW,248,0.0,0.0,88,0.00,CLR,,0.00,WeatherDisplay:10.37,2013-08-21 12:16:00,
2013-08-21 08:21:00,70.9,67.1,30.09,WSW,248,0.0,0.0,88,0.00,CLR,,0.00,WeatherDisplay:10.37,2013-08-21 12:21:00,
2013-08-21 08:26:00,71.4,67.3,30.09,WSW,248,0.0,0.0,87,0.00,CLR,,0.00,WeatherDisplay:10.37,2013-08-21 12:26:00,
2013-08-21 08:31:00,72.0,67.5,30.09,WSW,248,0.0,0.0,86,0.00,CLR,,0.00,WeatherDisplay:10.37,2013-08-21 12:31:00,
2013-08-21 08:36:00,72.7,67.6,30.09,WSW,248,0.0,0.0,84,0.00,CLR,,0.00,WeatherDisplay:10.37,2013-08-21 12:36:00,
2013-08-21 08:41:00,73.2,68.1,30.08,WSW,248,0.0,0.0,84,0.00,CLR,,0.00,WeatherDisplay:10.37,2013-08-21 12:41:00,
2013-08-21 08:46:00,73.8,68.3,30.08,WSW,248,0.0,0.0,83,0.00,CLR,,0.00,WeatherDisplay:10.37,2013-08-21 12:46:00,
2013-08-21 08:51:00,74.3,68.8,30.08,WSW,248,0.0,0.0,83,0.00,CLR,,0.00,WeatherDisplay:10.37,2013-08-21 12:51:00,
2013-08-21 08:56:00,74.8,69.0,30.08,WSW,248,0.0,0.0,82,0.00,CLR,,0.00,WeatherDisplay:10.37,2013-08-21 12:56:00,
2013-08-21 09:01:00,75.6,69.3,30.08,WSW,248,0.0,0.0,81,0.00,CLR,,0.00,WeatherDisplay:10.37,2013-08-21 13:01:00,
2013-08-21 09:06:00,76.1,69.5,30.08,WSW,248,0.0,0.0,80,0.00,CLR,,0.00,WeatherDisplay:10.37,2013-08-21 13:06:00,
2013-08-21 09:11:00,76.6,69.6,30.09,WSW,248,0.0,0.0,79,0.00,CLR,,0.00,WeatherDisplay:10.37,2013-08-21 13:11:00,
2013-08-21 09:16:00,77.2,69.8,30.09,NNW,338,0.2,1.1,78,0.00,CLR,,0.00,WeatherDisplay:10.37,2013-08-21 13:16:00,
2013-08-21 09:21:00,77.5,69.0,30.09,North,0,0.5,0.0,75,0.00,CLR,,0.00,WeatherDisplay:10.37,2013-08-21 13:21:00,
2013-08-21 09:26:00,78.1,69.9,30.09,North,0,0.7,1.1,76,0.00,CLR,,0.00,WeatherDisplay:10.37,2013-08-21 13:26:00,
2013-08-21 09:31:00,78.6,70.0,30.09,NW,315,0.7,1.1,75,0.00,CLR,,0.00,WeatherDisplay:10.37,2013-08-21 13:31:00,
2013-08-21 09:36:00,79.0,70.0,30.09,WNW,292,0.5,0.5,74,0.00,CLR,,0.00,WeatherDisplay:10.37,2013-08-21 13:36:00,
2013-08-21 09:41:00,79.5,70.5,30.09,SW,225,0.5,0.0,74,0.00,CLR,,0.00,WeatherDisplay:10.37,2013-08-21 13:41:00,
2013-08-21 09:46:00,79.9,70.0,30.09,SSW,202,0.5,1.1,72,0.00,CLR,,0.00,WeatherDisplay:10.37,2013-08-21 13:46:00,
2013-08-21 09:51:00,80.4,69.3,30.09,NNW,338,0.9,1.1,69,0.00,CLR,,0.00,WeatherDisplay:10.37,2013-08-21 13:51:00,
2013-08-21 09:56:00,80.8,70.1,30.09,WSW,248,0.5,2.3,70,0.00,CLR,,0.00,WeatherDisplay:10.37,2013-08-21 13:56:00,
2013-08-21 10:01:00,81.1,70.0,30.09,NW,315,0.7,0.7,69,0.00,CLR,,0.00,WeatherDisplay:10.37,2013-08-21 14:01:00,
2013-08-21 10:06:00,81.3,69.3,30.08,North,0,0.5,0.5,67,0.00,CLR,,0.00,WeatherDisplay:10.37,2013-08-21 14:06:00,
2013-08-21 10:11:00,81.7,69.2,30.08,North,0,0.2,2.3,66,0.00,CLR,,0.00,WeatherDisplay:10.37,2013-08-21 14:11:00,
2013-08-21 10:16:00,82.0,70.0,30.09,WNW,292,0.7,1.1,67,0.00,CLR,,0.00,WeatherDisplay:10.37,2013-08-21 14:16:00,
2013-08-21 10:21:00,82.6,70.1,30.08,WSW,248,1.6,0.0,66,0.00,CLR,,0.00,WeatherDisplay:10.37,2013-08-21 14:21:00,
2013-08-21 10:26:00,82.9,70.9,30.08,SE,135,0.7,1.1,67,0.00,CLR,,0.00,WeatherDisplay:10.37,2013-08-21 14:26:00,
2013-08-21 10:31:00,83.1,69.2,30.08,SSW,202,1.8,3.5,63,0.00,CLR,,0.00,WeatherDisplay:10.37,2013-08-21 14:31:00,
2013-08-21 10:36:00,83.3,69.8,30.08,SSW,202,1.1,3.5,64,0.00,CLR,,0.00,WeatherDisplay:10.37,2013-08-21 14:36:00,
2013-08-21 10:41:00,83.7,70.6,30.08,SW,225,1.1,2.3,65,0.00,CLR,,0.00,WeatherDisplay:10.37,2013-08-21 14:41:00,
2013-08-21 10:46:00,83.8,69.9,30.08,WSW,248,0.2,2.3,63,0.00,CLR,,0.00,WeatherDisplay:10.37,2013-08-21 14:46:00,
2013-08-21 10:51:00,84.2,69.8,30.08,SSW,202,0.5,2.3,62,0.00,CLR,,0.00,WeatherDisplay:10.37,2013-08-21 14:51:00,
2013-08-21 10:56:00,84.4,69.9,30.08,SW,225,2.0,2.3,62,0.00,CLR,,0.00,WeatherDisplay:10.37,2013-08-21 14:56:00,
2013-08-21 11:01:00,84.6,69.6,30.08,NNE,22,0.9,2.3,61,0.00,CLR,,0.00,WeatherDisplay:10.37,2013-08-21 15:01:00,
2013-08-21 11:06:00,84.7,68.8,30.08,SSW,202,3.6,3.6,59,0.00,CLR,,0.00,WeatherDisplay:10.37,2013-08-21 15:06:00,
2013-08-21 11:11:00,84.7,69.3,30.08,SSE,158,1.8,6.9,60,0.00,CLR,,0.00,WeatherDisplay:10.37,2013-08-21 15:11:00,
2013-08-21 11:16:00,85.1,70.6,30.08,SW,225,3.1,4.6,62,0.00,CLR,,0.00,WeatherDisplay:10.37,2013-08-21 15:16:00,
2013-08-21 11:21:00,85.5,70.0,30.08,SSW,202,1.4,4.6,60,0.00,CLR,,0.00,WeatherDisplay:10.37,2013-08-21 15:21:00,
2013-08-21 11:26:00,85.6,70.2,30.08,WNW,292,1.1,2.3,60,0.00,CLR,,0.00,WeatherDisplay:10.37,2013-08-21 15:26:00,
2013-08-21 11:31:00,85.6,68.7,30.08,SSW,202,5.9,6.9,57,0.00,CLR,,0.00,WeatherDisplay:10.37,2013-08-21 15:31:00,
2013-08-21 11:36:00,85.6,68.7,30.08,South,180,7.8,7.8,57,0.00,CLR,,0.00,WeatherDisplay:10.37,2013-08-21 15:36:00,
2013-08-21 11:41:00,85.6,69.7,30.08,South,180,1.4,4.6,59,0.00,CLR,,0.00,WeatherDisplay:10.37,2013-08-21 15:41:00,
2013-08-21 11:46:00,85.8,69.8,30.08,SE,135,3.6,3.6,59,0.00,CLR,,0.00,WeatherDisplay:10.37,2013-08-21 15:46:00,
2013-08-21 11:51:00,86.0,69.5,30.08,SSW,202,5.4,5.4,58,0.00,CLR,,0.00,WeatherDisplay:10.37,2013-08-21 15:51:00,
2013-08-21 11:56:00,86.5,70.5,30.08,SSW,202,1.4,3.5,59,0.00,CLR,,0.00,WeatherDisplay:10.37,2013-08-21 15:56:00,
2013-08-21 12:01:00,86.5,70.0,30.08,West,270,2.4,3.5,58,0.00,CLR,,0.00,WeatherDisplay:10.37,2013-08-21 16:01:00,
2013-08-21 12:06:00,86.5,69.5,30.07,SW,225,2.9,5.8,57,0.00,CLR,,0.00,WeatherDisplay:10.37,2013-08-21 16:06:00,
2013-08-21 12:11:00,86.5,69.5,30.07,SW,225,1.1,3.5,57,0.00,CLR,,0.00,WeatherDisplay:10.37,2013-08-21 16:11:00,
2013-08-21 12:16:00,86.7,69.1,30.07,WSW,248,2.9,5.8,56,0.00,CLR,,0.00,WeatherDisplay:10.37,2013-08-21 16:16:00,
2013-08-21 12:21:00,86.9,70.3,30.07,SSW,202,1.4,1.4,58,0.00,CLR,,0.00,WeatherDisplay:10.37,2013-08-21 16:21:00,
2013-08-21 12:26:00,87.1,70.0,30.06,SW,225,1.8,3.5,57,0.00,CLR,,0.00,WeatherDisplay:10.37,2013-08-21 16:26:00,
2013-08-21 12:31:00,87.3,67.5,30.06,WNW,292,2.4,2.4,52,0.00,CLR,,0.00,WeatherDisplay:10.37,2013-08-21 16:31:00,
2013-08-21 12:36:00,87.3,66.9,30.06,SW,225,0.7,1.1,51,0.00,CLR,,0.00,WeatherDisplay:10.37,2013-08-21 16:36:00,
2013-08-21 12:41:00,87.4,67.7,30.07,South,180,0.9,1.1,52,0.00,CLR,,0.00,WeatherDisplay:10.37,2013-08-21 16:41:00,
2013-08-21 12:46:00,87.8,68.0,30.07,South,180,4.5,4.5,52,0.00,CLR,,0.00,WeatherDisplay:10.37,2013-08-21 16:46:00,
2013-08-21 12:51:00,88.3,68.5,30.06,SSW,202,1.8,2.3,52,0.00,CLR,,0.00,WeatherDisplay:10.37,2013-08-21 16:51:00,
2013-08-21 12:56:00,88.5,67.5,30.06,SW,225,5.9,5.9,50,0.00,CLR,,0.00,WeatherDisplay:10.37,2013-08-21 16:56:00,
2013-08-21 13:01:00,88.5,66.9,30.06,SSW,202,2.4,2.4,49,0.00,CLR,,0.00,WeatherDisplay:10.37,2013-08-21 17:01:00,
2013-08-21 13:06:00,88.5,68.1,30.06,SSW,202,5.2,5.8,51,0.00,CLR,,0.00,WeatherDisplay:10.37,2013-08-21 17:06:00,
2013-08-21 13:11:00,88.9,68.4,30.06,SSW,202,1.8,6.9,51,0.00,CLR,,0.00,WeatherDisplay:10.37,2013-08-21 17:11:00,
2013-08-21 13:16:00,89.1,69.1,30.06,SSE,158,4.9,4.9,52,0.00,CLR,,0.00,WeatherDisplay:10.37,2013-08-21 17:16:00,
2013-08-21 13:21:00,88.9,69.5,30.06,SSW,202,4.5,4.5,53,0.00,CLR,,0.00,WeatherDisplay:10.37,2013-08-21 17:21:00,
2013-08-21 13:26:00,88.5,68.6,30.05,SW,225,4.7,4.7,52,0.00,CLR,,0.00,WeatherDisplay:10.37,2013-08-21 17:26:00,
2013-08-21 13:31:00,88.7,68.8,30.05,SSW,202,3.1,3.1,52,0.00,CLR,,0.00,WeatherDisplay:10.37,2013-08-21 17:31:00,
2013-08-21 13:36:00,88.5,68.6,30.05,SW,225,2.6,5.8,52,0.00,CLR,,0.00,WeatherDisplay:10.37,2013-08-21 17:36:00,
2013-08-21 13:41:00,88.9,68.4,30.05,SW,225,0.7,5.8,51,0.00,CLR,,0.00,WeatherDisplay:10.37,2013-08-21 17:41:00,
2013-08-21 13:46:00,89.1,68.0,30.05,South,180,1.6,5.8,50,0.00,CLR,,0.00,WeatherDisplay:10.37,2013-08-21 17:46:00,
2013-08-21 13:51:00,89.1,68.0,30.05,SSW,202,1.1,2.3,50,0.00,CLR,,0.00,WeatherDisplay:10.37,2013-08-21 17:51:00,
2013-08-21 13:56:00,89.2,67.6,30.05,SW,225,9.0,9.2,49,0.00,CLR,,0.00,WeatherDisplay:10.37,2013-08-21 17:56:00,
2013-08-21 14:01:00,89.1,67.4,30.05,SW,225,2.4,4.6,49,0.00,CLR,,0.00,WeatherDisplay:10.37,2013-08-21 18:01:00,
2013-08-21 14:06:00,89.2,68.2,30.05,South,180,1.8,2.3,50,0.00,CLR,,0.00,WeatherDisplay:10.37,2013-08-21 18:06:00,
2013-08-21 14:11:00,89.2,67.0,30.05,ESE,112,4.9,6.9,48,0.00,CLR,,0.00,WeatherDisplay:10.37,2013-08-21 18:11:00,
2013-08-21 14:16:00,89.2,67.0,30.04,SSW,202,0.9,4.6,48,0.00,CLR,,0.00,WeatherDisplay:10.37,2013-08-21 18:16:00,
2013-08-21 14:21:00,88.9,67.2,30.04,SW,225,4.0,8.1,49,0.00,CLR,,0.00,WeatherDisplay:10.37,2013-08-21 18:21:00,
2013-08-21 14:26:00,88.9,67.2,30.04,SSW,202,5.4,5.4,49,0.00,CLR,,0.00,WeatherDisplay:10.37,2013-08-21 18:26:00,
2013-08-21 14:31:00,88.9,67.2,30.04,SSW,202,6.2,6.2,49,0.00,CLR,,0.00,WeatherDisplay:10.37,2013-08-21 18:31:00,
2013-08-21 14:36:00,88.7,67.1,30.04,South,180,4.0,4.0,49,0.00,CLR,,0.00,WeatherDisplay:10.37,2013-08-21 18:36:00,
2013-08-21 14:41:00,88.5,66.9,30.03,South,180,8.3,8.3,49,0.00,CLR,,0.00,WeatherDisplay:10.37,2013-08-21 18:41:00,
2013-08-21 14:46:00,88.5,66.9,30.03,SSW,202,3.3,10.4,49,0.00,CLR,,0.00,WeatherDisplay:10.37,2013-08-21 18:46:00,
2013-08-21 14:51:00,88.0,66.4,30.03,SSW,202,8.1,8.1,49,0.00,CLR,,0.00,WeatherDisplay:10.37,2013-08-21 18:51:00,
2013-08-21 14:56:00,87.8,66.3,30.03,South,180,4.9,10.4,49,0.00,CLR,,0.00,WeatherDisplay:10.37,2013-08-21 18:56:00,
2013-08-21 15:01:00,87.6,66.1,30.03,South,180,6.2,10.4,49,0.00,CLR,,0.00,WeatherDisplay:10.37,2013-08-21 19:01:00,
2013-08-21 15:06:00,87.8,68.5,30.03,SSW,202,5.9,5.9,53,0.00,CLR,,0.00,WeatherDisplay:10.37,2013-08-21 19:06:00,
2013-08-21 15:11:00,87.4,67.7,30.04,South,180,6.4,6.9,52,0.00,CLR,,0.00,WeatherDisplay:10.37,2013-08-21 19:11:00,
2013-08-21 15:16:00,87.3,68.0,30.04,SSE,158,4.0,4.0,53,0.00,CLR,,0.00,WeatherDisplay:10.37,2013-08-21 19:16:00,
2013-08-21 15:21:00,86.7,67.5,30.03,SW,225,6.2,8.1,53,0.00,CLR,,0.00,WeatherDisplay:10.37,2013-08-21 19:21:00,
2013-08-21 15:26:00,86.7,67.5,30.03,SSW,202,5.4,8.1,53,0.00,CLR,,0.00,WeatherDisplay:10.37,2013-08-21 19:26:00,
2013-08-21 15:31:00,86.5,68.5,30.03,SW,225,6.0,6.0,55,0.00,CLR,,0.00,WeatherDisplay:10.37,2013-08-21 19:31:00,
2013-08-21 15:36:00,86.2,68.6,30.03,South,180,4.0,5.8,56,0.00,CLR,,0.00,WeatherDisplay:10.37,2013-08-21 19:36:00,
2013-08-21 15:41:00,85.8,68.3,30.03,SSW,202,6.0,6.9,56,0.00,CLR,,0.00,WeatherDisplay:10.37,2013-08-21 19:41:00,
2013-08-21 15:46:00,85.8,68.8,30.04,SSW,202,2.4,6.9,57,0.00,CLR,,0.00,WeatherDisplay:10.37,2013-08-21 19:46:00,
2013-08-21 15:51:00,85.6,69.2,30.04,SSW,202,2.4,2.4,58,0.00,CLR,,0.00,WeatherDisplay:10.37,2013-08-21 19:51:00,
2013-08-21 15:56:00,85.6,69.2,30.03,South,180,2.6,6.9,58,0.00,CLR,,0.00,WeatherDisplay:10.37,2013-08-21 19:56:00,
2013-08-21 16:01:00,85.6,69.2,30.03,South,180,5.9,5.9,58,0.00,CLR,,0.00,WeatherDisplay:10.37,2013-08-21 20:01:00,
2013-08-21 16:06:00,85.6,69.2,30.03,SSW,202,5.6,5.8,58,0.00,CLR,,0.00,WeatherDisplay:10.37,2013-08-21 20:06:00,
2013-08-21 16:11:00,85.5,69.0,30.03,South,180,3.3,9.2,58,0.00,CLR,,0.00,WeatherDisplay:10.37,2013-08-21 20:11:00,
2013-08-21 16:16:00,84.9,68.5,30.03,South,180,6.2,6.2,58,0.00,CLR,,0.00,WeatherDisplay:10.37,2013-08-21 20:16:00,
2013-08-21 16:21:00,84.7,68.8,30.03,SW,225,6.9,6.9,59,0.00,CLR,,0.00,WeatherDisplay:10.37,2013-08-21 20:21:00,
2013-08-21 16:26:00,84.4,69.0,30.02,SW,225,4.7,5.8,60,0.00,CLR,,0.00,WeatherDisplay:10.37,2013-08-21 20:26:00,
2013-08-21 16:31:00,84.6,68.7,30.02,SSW,202,5.6,5.8,59,0.00,CLR,,0.00,WeatherDisplay:10.37,2013-08-21 20:31:00,
2013-08-21 16:36:00,84.6,68.7,30.03,SSW,202,6.2,9.2,59,0.00,CLR,,0.00,WeatherDisplay:10.37,2013-08-21 20:36:00,
2013-08-21 16:41:00,83.8,68.5,30.03,SSW,202,0.9,1.1,60,0.00,CLR,,0.00,WeatherDisplay:10.37,2013-08-21 20:41:00,
2013-08-21 16:46:00,83.5,68.6,30.03,SSW,202,4.7,4.7,61,0.00,CLR,,0.00,WeatherDisplay:10.37,2013-08-21 20:46:00,
2013-08-21 16:51:00,83.1,68.3,30.03,South,180,2.0,6.9,61,0.00,CLR,,0.00,WeatherDisplay:10.37,2013-08-21 20:51:00,
2013-08-21 16:56:00,82.9,68.1,30.02,SSE,158,2.6,8.1,61,0.00,CLR,,0.00,WeatherDisplay:10.37,2013-08-21 20:56:00,
2013-08-21 17:01:00,82.9,68.6,30.02,South,180,6.0,6.0,62,0.00,CLR,,0.00,WeatherDisplay:10.37,2013-08-21 21:01:00,
2013-08-21 17:06:00,82.9,68.6,30.02,SSE,158,2.6,2.6,62,0.00,CLR,,0.00,WeatherDisplay:10.37,2013-08-21 21:06:00,
2013-08-21 17:11:00,83.5,69.1,30.01,SSE,158,2.6,2.6,62,0.00,CLR,,0.00,WeatherDisplay:10.37,2013-08-21 21:11:00,
2013-08-21 17:16:00,83.8,69.0,30.01,SSW,202,1.8,5.8,61,0.00,CLR,,0.00,WeatherDisplay:10.37,2013-08-21 21:16:00,
2013-08-21 17:21:00,82.9,68.1,30.01,SW,225,1.6,1.6,61,0.00,CLR,,0.00,WeatherDisplay:10.37,2013-08-21 21:21:00,
2013-08-21 17:26:00,82.0,67.7,30.01,SW,225,1.6,1.6,62,0.00,CLR,,0.00,WeatherDisplay:10.37,2013-08-21 21:26:00,
2013-08-21 17:31:00,81.5,68.1,30.01,SW,225,1.6,1.6,64,0.00,CLR,,0.00,WeatherDisplay:10.37,2013-08-21 21:31:00,
2013-08-21 17:36:00,81.0,68.1,30.01,SW,225,1.6,1.6,65,0.00,CLR,,0.00,WeatherDisplay:10.37,2013-08-21 21:36:00,
2013-08-21 17:41:00,80.4,67.6,30.01,SW,225,1.6,1.6,65,0.00,CLR,,0.00,WeatherDisplay:10.37,2013-08-21 21:41:00,
2013-08-21 17:46:00,80.1,67.7,30.01,SW,225,1.6,1.6,66,0.00,CLR,,0.00,WeatherDisplay:10.37,2013-08-21 21:46:00,
2013-08-21 17:51:00,79.7,67.3,30.01,SW,225,1.6,1.6,66,0.00,CLR,,0.00,WeatherDisplay:10.37,2013-08-21 21:51:00,
2013-08-21 17:56:00,79.3,67.0,30.01,SW,225,1.6,1.6,66,0.00,CLR,,0.00,WeatherDisplay:10.37,2013-08-21 21:56:00,
2013-08-21 18:01:00,79.2,67.7,30.01,SW,225,1.6,1.6,68,0.00,CLR,,0.00,WeatherDisplay:10.37,2013-08-21 22:01:00,
2013-08-21 18:06:00,79.0,67.5,30.01,SW,225,1.6,1.6,68,0.00,CLR,,0.00,WeatherDisplay:10.37,2013-08-21 22:06:00,
2013-08-21 18:11:00,78.8,67.8,30.01,SW,225,1.6,1.6,69,0.00,CLR,,0.00,WeatherDisplay:10.37,2013-08-21 22:11:00,
2013-08-21 18:16:00,78.6,67.6,30.00,SW,225,1.6,1.6,69,0.00,CLR,,0.00,WeatherDisplay:10.37,2013-08-21 22:16:00,
2013-08-21 18:21:00,78.4,67.4,30.00,SW,225,1.6,1.6,69,0.00,CLR,,0.00,WeatherDisplay:10.37,2013-08-21 22:21:00,
2013-08-21 18:26:00,78.3,67.7,30.00,SW,225,1.6,1.6,70,0.00,CLR,,0.00,WeatherDisplay:10.37,2013-08-21 22:26:00,
2013-08-21 18:31:00,78.1,67.9,30.00,SW,225,1.6,1.6,71,0.00,CLR,,0.00,WeatherDisplay:10.37,2013-08-21 22:31:00,
2013-08-21 18:36:00,77.7,67.6,30.01,SW,225,1.6,1.6,71,0.00,CLR,,0.00,WeatherDisplay:10.37,2013-08-21 22:36:00,
2013-08-21 18:41:00,77.5,67.4,30.01,SW,225,1.6,1.6,71,0.00,CLR,,0.00,WeatherDisplay:10.37,2013-08-21 22:41:00,
2013-08-21 18:46:00,77.4,66.8,30.01,SW,225,1.6,1.6,70,0.00,CLR,,0.00,WeatherDisplay:10.37,2013-08-21 22:46:00,
2013-08-21 18:51:00,77.4,67.2,30.00,SW,225,1.6,1.6,71,0.00,CLR,,0.00,WeatherDisplay:10.37,2013-08-21 22:51:00,
2013-08-21 18:56:00,77.2,66.6,30.00,SW,225,1.6,1.6,70,0.00,CLR,,0.00,WeatherDisplay:10.37,2013-08-21 22:56:00,
2013-08-21 19:01:00,76.8,66.3,30.00,SW,225,1.6,1.6,70,0.00,CLR,,0.00,WeatherDisplay:10.37,2013-08-21 23:01:00,
2013-08-21 19:06:00,76.5,65.9,30.00,SW,225,1.6,1.6,70,0.00,CLR,,0.00,WeatherDisplay:10.37,2013-08-21 23:06:00,
2013-08-21 19:11:00,76.1,66.0,30.00,SW,225,1.6,1.6,71,0.00,CLR,,0.00,WeatherDisplay:10.37,2013-08-21 23:11:00,
2013-08-21 19:16:00,75.7,65.7,30.00,SW,225,1.6,1.6,71,0.00,CLR,,0.00,WeatherDisplay:10.37,2013-08-21 23:16:00,
2013-08-21 19:21:00,75.2,65.1,30.00,SW,225,1.6,1.6,71,0.00,CLR,,0.00,WeatherDisplay:10.37,2013-08-21 23:21:00,
2013-08-21 19:26:00,74.8,65.2,30.00,SW,225,1.6,1.6,72,0.00,CLR,,0.00,WeatherDisplay:10.37,2013-08-21 23:26:00,
2013-08-21 19:31:00,74.5,64.9,30.00,SW,225,1.6,1.6,72,0.00,CLR,,0.00,WeatherDisplay:10.37,2013-08-21 23:31:00,
2013-08-21 19:36:00,74.3,64.7,30.01,SW,225,1.6,1.6,72,0.00,CLR,,0.00,WeatherDisplay:10.37,2013-08-21 23:36:00,
2013-08-21 19:41:00,74.1,64.5,30.00,SW,225,1.6,1.6,72,0.00,CLR,,0.00,WeatherDisplay:10.37,2013-08-21 23:41:00,
2013-08-21 19:46:00,73.8,64.2,30.00,SW,225,1.6,1.6,72,0.00,CLR,,0.00,WeatherDisplay:10.37,2013-08-21 23:46:00,
2013-08-21 19:51:00,73.4,64.2,30.01,SW,225,1.6,1.6,73,0.00,CLR,,0.00,WeatherDisplay:10.37,2013-08-21 23:51:00,
2013-08-21 19:56:00,73.0,63.9,30.01,SW,225,1.6,1.6,73,0.00,CLR,,0.00,WeatherDisplay:10.37,2013-08-21 23:56:00,
2013-08-21 20:01:00,72.7,63.9,30.01,SW,225,1.6,1.6,74,0.00,CLR,,0.00,WeatherDisplay:10.37,2013-08-22 00:01:00,
2013-08-21 20:06:00,72.7,63.9,30.01,SW,225,1.6,1.6,74,0.00,CLR,,0.00,WeatherDisplay:10.37,2013-08-22 00:06:00,
2013-08-21 20:11:00,72.3,63.6,30.01,SW,225,1.6,1.6,74,0.00,CLR,,0.00,WeatherDisplay:10.37,2013-08-22 00:11:00,
2013-08-21 20:16:00,72.3,63.9,30.01,SW,225,1.6,1.6,75,0.00,CLR,,0.00,WeatherDisplay:10.37,2013-08-22 00:16:00,
2013-08-21 20:21:00,72.0,63.2,30.01,SW,225,1.6,1.6,74,0.00,CLR,,0.00,WeatherDisplay:10.37,2013-08-22 00:21:00,
2013-08-21 20:26:00,71.8,63.0,30.01,SW,225,1.6,1.6,74,0.00,CLR,,0.00,WeatherDisplay:10.37,2013-08-22 00:26:00,
2013-08-21 20:31:00,71.6,62.9,30.01,SW,225,1.6,1.6,74,0.00,CLR,,0.00,WeatherDisplay:10.37,2013-08-22 00:31:00,
2013-08-21 20:36:00,71.6,63.3,30.01,SW,225,1.6,1.6,75,0.00,CLR,,0.00,WeatherDisplay:10.37,2013-08-22 00:36:00,
2013-08-21 20:41:00,71.2,62.9,30.01,SW,225,1.6,1.6,75,0.00,CLR,,0.00,WeatherDisplay:10.37,2013-08-22 00:41:00,
2013-08-21 20:46:00,71.1,63.1,30.02,SW,225,1.6,1.6,76,0.00,CLR,,0.00,WeatherDisplay:10.37,2013-08-22 00:46:00,
2013-08-21 20:51:00,70.9,63.3,30.02,SW,225,1.6,1.6,77,0.00,CLR,,0.00,WeatherDisplay:10.37,2013-08-22 00:51:00,
2013-08-21 20:56:00,70.9,63.3,30.02,SW,225,1.6,1.6,77,0.00,CLR,,0.00,WeatherDisplay:10.37,2013-08-22 00:56:00,
2013-08-21 21:01:00,70.5,63.0,30.02,SW,225,1.6,1.6,77,0.00,CLR,,0.00,WeatherDisplay:10.37,2013-08-22 01:01:00,
2013-08-21 21:06:00,70.5,63.3,30.02,SW,225,1.6,1.6,78,0.00,CLR,,0.00,WeatherDisplay:10.37,2013-08-22 01:06:00,
2013-08-21 21:11:00,70.3,63.2,30.02,SW,225,1.6,1.6,78,0.00,CLR,,0.00,WeatherDisplay:10.37,2013-08-22 01:11:00,
2013-08-21 21:16:00,70.2,63.0,30.02,SW,225,1.6,1.6,78,0.00,CLR,,0.00,WeatherDisplay:10.37,2013-08-22 01:16:00,
2013-08-21 21:21:00,70.2,63.3,30.02,SW,225,1.6,1.6,79,0.00,CLR,,0.00,WeatherDisplay:10.37,2013-08-22 01:21:00,
2013-08-21 21:26:00,70.2,63.3,30.02,SW,225,1.6,1.6,79,0.00,CLR,,0.00,WeatherDisplay:10.37,2013-08-22 01:26:00,
2013-08-21 21:31:00,69.8,63.0,30.02,SW,225,1.6,1.6,79,0.00,CLR,,0.00,WeatherDisplay:10.37,2013-08-22 01:31:00,
2013-08-21 21:36:00,69.6,62.8,30.01,SW,225,1.6,1.6,79,0.00,CLR,,0.00,WeatherDisplay:10.37,2013-08-22 01:36:00,
2013-08-21 21:41:00,69.4,63.0,30.01,SW,225,1.6,1.6,80,0.00,CLR,,0.00,WeatherDisplay:10.37,2013-08-22 01:41:00,
2013-08-21 21:46:00,69.3,62.8,30.01,SW,225,1.6,1.6,80,0.00,CLR,,0.00,WeatherDisplay:10.37,2013-08-22 01:46:00,
2013-08-21 21:51:00,69.1,62.6,30.01,SW,225,1.6,1.6,80,0.00,CLR,,0.00,WeatherDisplay:10.37,2013-08-22 01:51:00,
2013-08-21 21:56:00,68.9,62.5,30.01,SW,225,1.6,1.6,80,0.00,CLR,,0.00,WeatherDisplay:10.37,2013-08-22 01:56:00,
2013-08-21 22:01:00,68.7,62.3,30.01,SW,225,1.6,1.6,80,0.00,CLR,,0.00,WeatherDisplay:10.37,2013-08-22 02:01:00,
2013-08-21 22:06:00,68.5,62.5,30.01,SW,225,1.6,1.6,81,0.00,CLR,,0.00,WeatherDisplay:10.37,2013-08-22 02:06:00,
2013-08-21 22:11:00,68.4,62.3,30.01,SW,225,1.6,1.6,81,0.00,CLR,,0.00,WeatherDisplay:10.37,2013-08-22 02:11:00,
2013-08-21 22:16:00,68.2,62.1,30.01,SW,225,1.6,1.6,81,0.00,CLR,,0.00,WeatherDisplay:10.37,2013-08-22 02:16:00,
2013-08-21 22:21:00,68.0,62.3,30.01,SW,225,1.6,1.6,82,0.00,CLR,,0.00,WeatherDisplay:10.37,2013-08-22 02:21:00,
2013-08-21 22:26:00,68.0,62.3,30.01,SW,225,1.6,1.6,82,0.00,CLR,,0.00,WeatherDisplay:10.37,2013-08-22 02:26:00,
2013-08-21 22:31:00,68.0,62.3,30.01,SW,225,1.6,1.6,82,0.00,CLR,,0.00,WeatherDisplay:10.37,2013-08-22 02:31:00,
2013-08-21 22:36:00,68.0,62.3,30.01,SW,225,1.6,1.6,82,0.00,CLR,,0.00,WeatherDisplay:10.37,2013-08-22 02:36:00,
2013-08-21 22:41:00,68.0,62.6,30.00,SW,225,1.6,1.6,83,0.00,CLR,,0.00,WeatherDisplay:10.37,2013-08-22 02:41:00,
2013-08-21 22:46:00,68.0,62.6,30.00,SW,225,1.6,1.6,83,0.00,CLR,,0.00,WeatherDisplay:10.37,2013-08-22 02:46:00,
2013-08-21 22:51:00,67.8,62.5,30.01,SW,225,1.6,1.6,83,0.00,CLR,,0.00,WeatherDisplay:10.37,2013-08-22 02:51:00,
2013-08-21 22:56:00,67.6,62.3,30.00,SW,225,1.6,1.6,83,0.00,CLR,,0.00,WeatherDisplay:10.37,2013-08-22 02:56:00,
2013-08-21 23:01:00,67.6,62.3,30.00,SW,225,1.6,1.6,83,0.00,CLR,,0.00,WeatherDisplay:10.37,2013-08-22 03:01:00,
2013-08-21 23:06:00,67.5,62.1,30.01,SW,225,1.6,1.6,83,0.00,CLR,,0.00,WeatherDisplay:10.37,2013-08-22 03:06:00,
2013-08-21 23:11:00,67.3,61.9,30.01,SW,225,1.6,1.6,83,0.00,CLR,,0.00,WeatherDisplay:10.37,2013-08-22 03:11:00,
2013-08-21 23:16:00,67.3,61.9,30.00,SW,225,1.6,1.6,83,0.00,CLR,,0.00,WeatherDisplay:10.37,2013-08-22 03:16:00,
2013-08-21 23:21:00,67.3,62.3,30.00,SW,225,1.6,1.6,84,0.00,CLR,,0.00,WeatherDisplay:10.37,2013-08-22 03:21:00,
2013-08-21 23:26:00,67.1,62.1,30.00,SW,225,1.6,1.6,84,0.00,CLR,,0.00,WeatherDisplay:10.37,2013-08-22 03:26:00,
2013-08-21 23:31:00,66.9,61.9,30.00,SW,225,1.6,1.6,84,0.00,CLR,,0.00,WeatherDisplay:10.37,2013-08-22 03:31:00,
2013-08-21 23:36:00,66.9,61.9,30.00,SW,225,1.6,1.6,84,0.00,CLR,,0.00,WeatherDisplay:10.37,2013-08-22 03:36:00,
2013-08-21 23:41:00,66.9,61.9,30.00,SW,225,1.6,1.6,84,0.00,CLR,,0.00,WeatherDisplay:10.37,2013-08-22 03:41:00,
2013-08-21 23:46:00,66.7,61.7,30.00,SW,225,1.6,1.6,84,0.00,CLR,,0.00,WeatherDisplay:10.37,2013-08-22 03:46:00,
2013-08-21 23:52:00,66.7,61.7,30.00,SW,225,1.6,1.6,84,0.00,CLR,,0.00,WeatherDisplay:10.37,2013-08-22 03:52:00,
2013-08-21 23:57:00,66.9,61.9,30.00,SW,225,1.6,1.6,84,0.00,CLR,,0.00,WeatherDisplay:10.37,2013-08-22 03:57:00,